GFSWCAN_con_3kmhel_174.txt.gz
Helicity
207 168 169 175 186 208 213 203 187 192 143 133 119 107 107 96 91 122 139 126 165 187 163 156 167 181 181 169 186 125 115 117 129 160 180 164 205 233 201 214 169 165 160 164 166 190 160 195 200 173 200 234 220 227
200 147 210 236 249 226 225 193 173 182 170 146 136 110 105 99 88 108 151 134 154 188 172 161 183 178 180 189 208 182 199 194 191 181 204 216 226 214 218 251 218 194 201 211 188 263 231 171 225 162 225 244 283 286
127 253 277 258 240 217 200 187 184 169 153 134 116 94 84 98 98 107 171 161 170 180 161 187 191 176 161 172 170 191 201 218 219 194 221 243 269 247 264 188 156 164 190 237 220 320 260 246 136 157 281 302 279 188
327 339 303 282 232 237 213 180 170 147 138 111 96 83 75 98 101 142 210 160 201 219 213 214 168 171 136 138 126 152 185 197 200 181 196 222 272 247 260 256 288 288 335 275 300 252 178 166 245 296 341 274 227 180
802 606 462 368 245 266 161 154 135 145 156 141 112 88 99 127 127 168 213 191 208 238 189 169 123 138 148 165 170 129 146 166 175 191 217 224 230 204 214 234 264 208 129 206 231 161 179 208 324 269 251 223 209 165
697 645 483 407 382 277 190 178 204 214 194 193 150 75 77 92 173 220 178 166 155 162 171 153 168 170 175 168 171 178 183 215 237 212 172 190 218 182 202 248 153 93 76 118 121 209 239 256 307 217 176 179 123 145
115 374 425 307 303 287 269 211 186 181 201 214 179 128 67 143 224 162 231 183 135 179 170 158 141 187 198 203 201 190 183 198 197 215 252 246 228 219 295 266 228 154 147 159 241 265 241 216 178 140 138 122 126 95
37 48 166 235 165 173 225 231 219 197 183 197 250 311 276 250 207 209 257 199 146 146 124 164 213 222 128 154 180 137 145 153 188 240 263 234 218 234 303 199 127 115 155 253 223 166 188 200 194 159 139 113 82 65
62 42 21 86 133 145 148 159 175 181 169 165 172 244 266 250 267 248 260 236 187 208 189 205 206 173 167 209 175 171 171 158 188 253 234 183 234 331 173 160 152 166 212 213 175 176 150 118 120 140 107 68 65 64
3 22 32 -4 8 20 29 41 65 87 102 110 128 175 242 222 220 146 176 142 171 227 226 278 279 287 179 174 214 208 212 260 276 232 198 254 302 137 109 143 133 159 188 160 169 166 121 133 131 90 74 61 49 46
53 44 17 8 -7 -3 3 23 40 62 102 136 190 205 93 59 90 94 152 233 241 290 168 261 291 261 271 245 241 229 223 211 253 232 242 247 184 114 119 127 140 116 158 176 138 133 146 133 125 115 82 56 43 72
41 69 83 37 27 15 16 13 26 60 76 87 92 112 124 154 203 261 301 257 270 259 239 204 206 241 214 208 218 186 217 243 284 228 235 207 96 95 165 138 108 102 107 103 97 104 104 103 100 83 78 82 113 123
24 50 58 60 56 40 23 28 47 35 42 93 114 128 159 177 265 268 308 277 217 182 155 141 169 146 159 175 225 192 194 204 194 228 223 111 97 91 105 101 107 117 114 101 95 98 97 98 101 124 139 158 156 165
34 45 65 79 108 84 53 31 41 55 69 96 118 182 167 200 189 180 165 140 155 145 125 143 166 163 163 166 168 191 174 183 215 203 132 81 81 87 97 72 74 58 59 78 92 103 106 115 119 127 145 144 141 186
15 29 49 77 91 104 80 35 61 110 102 108 106 134 105 113 146 148 160 180 175 120 141 168 170 141 146 152 143 184 188 169 141 115 90 56 93 103 74 58 57 67 91 117 129 116 107 110 120 136 154 169 184 187
20 30 40 45 67 74 80 187 214 149 109 125 115 122 114 112 103 105 95 127 98 109 108 114 128 124 132 139 137 111 173 158 135 69 36 68 64 59 48 71 69 70 89 108 120 135 150 162 168 155 143 142 139 148
50 55 36 28 51 81 105 85 69 73 118 114 155 133 98 90 74 81 84 73 74 100 111 103 117 95 114 123 101 103 169 167 114 89 74 59 62 57 47 58 72 89 105 120 131 152 151 130 124 142 150 150 142 148
77 51 46 55 58 79 86 103 100 85 146 111 95 131 123 107 86 113 101 112 113 84 110 71 100 126 83 83 140 164 137 117 96 90 84 67 58 58 76 96 96 106 121 144 149 134 129 128 126 148 136 136 152 164
51 60 33 23 56 61 69 76 89 97 82 60 79 72 82 141 122 106 117 121 134 144 143 126 92 98 160 182 184 143 134 117 92 84 84 84 89 101 104 100 99 125 120 112 116 124 121 122 147 155 157 165 181 179
31 34 37 47 50 56 58 59 58 74 65 109 112 99 85 94 165 183 93 136 185 172 151 135 149 210 215 205 168 119 100 94 93 79 80 109 116 113 104 122 125 86 96 96 113 83 121 132 141 143 155 156 150 155
65 58 71 79 62 61 47 39 40 44 58 59 83 97 65 93 92 113 131 133 149 159 165 159 192 194 161 142 113 108 98 105 133 145 135 128 119 108 101 107 101 102 110 113 133 134 118 141 137 139 138 131 134 141
137 129 94 76 63 68 68 72 66 57 57 52 52 76 122 57 81 106 99 113 111 140 167 162 194 168 108 75 73 87 103 113 127 133 81 77 98 109 116 106 104 101 124 149 149 144 143 142 135 118 123 127 110 119
133 103 77 64 70 62 48 61 63 65 54 34 35 47 50 119 108 116 93 74 63 95 138 165 129 103 93 88 91 98 108 84 76 95 95 111 133 151 146 136 137 144 139 137 137 145 144 95 109 104 107 108 122 92
110 78 57 41 48 55 92 75 68 57 62 54 38 33 4 24 53 87 66 52 78 94 122 106 108 94 91 106 117 88 63 77 76 85 101 123 124 107 123 122 119 124 130 140 141 130 130 116 87 107 105 92 83 97
57 10 6 45 68 111 121 115 89 72 58 53 61 43 31 19 35 52 65 59 58 67 61 61 74 95 111 112 95 86 79 69 49 65 104 136 120 111 105 115 111 102 100 115 125 108 103 102 99 93 89 90 89 99
42 46 44 107 131 113 127 129 98 78 80 38 15 39 64 37 53 28 16 37 48 75 103 112 113 133 139 117 85 50 47 63 72 85 114 122 101 111 113 46 101 94 122 118 98 100 100 94 88 82 90 78 46 59
12 13 77 177 216 201 140 62 78 40 30 44 23 36 50 13 32 18 44 63 85 122 138 147 143 128 104 79 67 84 87 76 81 104 95 89 96 112 103 120 102 118 107 105 117 117 117 117 119 116 114 117 117 98
65 57 31 94 42 57 34 5 31 61 58 40 26 30 -6 -18 12 47 73 107 128 128 125 114 106 91 71 82 92 92 75 82 73 68 69 68 56 63 43 96 83 47 75 96 98 104 122 132 142 144 122 88 56 58
40 37 23 -11 -11 -7 -9 4 11 27 21 12 8 19 22 72 75 85 95 120 116 134 140 129 113 128 115 106 76 72 70 62 57 8 -80 -83 -70 36 66 24 60 90 111 124 86 52 50 37 31 42 51 66 74 76
-27 -47 -33 -12 2 8 22 9 29 45 48 55 60 68 82 82 81 92 105 129 128 115 108 104 93 91 93 82 72 63 43 7 -14 -111 -122 -69 -50 -18 -5 35 75 92 103 108 117 91 52 34 34 36 35 32 28 38
7 39 51 30 23 29 31 41 34 39 54 62 72 81 89 85 103 123 117 91 96 106 109 114 96 60 47 24 -14 -27 -29 -106 -107 -103 -86 -49 -10 29 55 79 90 108 107 86 66 80 75 42 41 33 27 26 24 10
-2 3 13 35 38 25 29 38 37 36 27 48 68 103 120 135 133 104 89 92 75 72 62 57 42 11 -12 -68 -84 -75 -68 -67 -51 -46 -20 -3 4 22 58 65 69 60 50 51 53 63 49 41 40 29 31 26 15 8
11 13 7 6 19 24 22 35 41 41 57 67 76 95 100 102 97 87 69 52 24 36 47 52 -74 -55 -69 -80 -51 -51 -54 -41 -5 14 28 24 36 33 22 26 11 15 32 34 42 54 21 20 13 6 14 25 38 51

GFSWCAN_con_3kmhel_177.txt.gz
Helicity
54 81 291 291 278 168 161 175 174 181 206 205 201 174 152 133 136 170 163 145 185 180 172 155 159 173 187 191 161 128 168 157 182 160 155 140 173 190 223 230 187 188 204 168 159 199 117 145 178 146 152 190 245 276
2 171 412 351 301 221 198 200 195 201 212 219 216 193 163 148 138 158 207 166 167 203 174 173 199 195 208 200 193 177 174 152 131 168 175 203 234 242 228 242 220 220 185 188 178 173 158 164 171 165 185 211 280 278
38 348 444 413 288 235 185 221 253 228 225 219 196 178 163 148 140 168 187 179 209 234 176 206 251 225 207 212 197 202 202 189 188 184 193 212 228 241 239 200 229 223 223 229 227 236 257 227 199 179 218 263 246 223
121 306 461 376 307 291 242 262 276 257 219 180 165 153 142 138 129 162 200 158 213 240 250 250 220 251 235 214 211 214 182 211 236 252 247 243 250 191 208 214 238 196 226 220 256 232 186 170 122 115 170 182 196 223
344 477 328 290 304 318 335 299 276 238 166 150 139 139 125 113 120 155 187 160 180 268 242 213 218 260 300 276 248 185 195 210 207 199 194 181 185 178 204 237 279 230 196 225 200 154 160 178 183 190 224 207 183 149
739 141 170 325 445 380 322 304 285 259 210 163 152 129 100 108 159 229 251 175 270 330 273 208 223 258 248 184 187 169 147 157 166 169 180 191 197 170 197 225 131 66 85 106 138 134 145 147 163 167 183 143 95 99
489 606 584 403 393 349 383 316 274 267 252 181 126 146 128 137 276 351 290 312 214 206 240 188 151 232 230 218 217 194 176 160 164 173 193 202 182 202 244 247 199 151 109 78 136 148 174 140 188 141 145 146 152 114
79 240 113 172 286 301 300 294 234 243 264 222 198 256 278 367 324 362 220 112 129 252 183 192 226 201 107 160 158 132 142 146 161 187 211 198 185 232 240 125 105 88 120 158 164 163 172 179 167 163 193 187 161 126
112 92 124 142 73 111 193 355 329 309 295 299 317 356 365 300 278 271 202 222 192 169 197 210 222 217 183 201 195 203 174 185 177 201 187 154 216 226 104 169 146 149 138 131 115 124 140 133 155 180 167 141 136 107
63 68 76 111 90 60 69 88 144 213 195 248 264 253 204 240 262 280 221 130 131 179 173 262 246 255 168 192 231 225 162 190 187 184 163 189 240 63 144 137 117 129 104 82 153 142 116 141 112 128 129 115 100 88
72 49 54 41 22 25 39 93 136 180 241 320 290 310 186 206 204 148 206 241 256 314 229 299 257 250 288 273 242 165 149 186 224 207 208 221 111 87 123 136 114 83 63 61 105 121 108 130 139 134 115 101 94 83
24 44 50 41 19 11 19 27 49 88 143 150 142 148 144 220 241 303 330 263 262 295 277 277 277 243 209 171 186 190 220 219 244 208 216 162 31 97 133 113 83 91 110 114 100 89 90 100 120 100 82 94 118 125
-34 49 98 117 45 8 5 30 36 11 66 98 149 181 205 222 281 275 329 356 315 204 149 152 203 195 178 164 205 184 218 221 182 209 158 66 87 91 92 94 125 106 104 96 108 100 91 86 86 94 100 116 116 116
-33 -8 22 63 91 42 5 17 22 55 95 153 205 258 225 223 224 213 200 168 149 130 140 162 198 172 148 178 165 207 156 157 194 156 89 86 104 82 135 146 134 110 95 78 65 71 74 79 72 70 90 112 137 158
6 9 33 35 37 36 24 36 61 51 50 159 180 226 199 165 150 132 112 145 156 118 130 157 187 147 170 164 148 158 171 147 96 80 90 63 71 117 118 87 77 66 66 70 84 80 77 80 93 100 137 157 136 114
17 26 21 35 56 55 89 127 81 53 51 72 124 157 99 123 121 106 120 149 137 138 152 146 145 150 153 145 152 119 148 108 131 121 107 82 108 107 102 96 82 73 62 62 76 80 93 118 115 117 111 105 105 107
20 17 -0 18 27 76 95 53 55 95 43 88 124 88 74 75 64 75 96 89 66 110 125 108 137 108 116 137 100 81 105 138 157 143 115 100 97 85 75 77 87 85 81 90 103 118 133 144 133 130 119 115 141 149
28 13 14 22 27 55 70 99 29 39 109 124 126 103 79 85 76 77 67 76 80 68 81 78 79 101 69 79 95 102 118 145 124 108 98 83 72 67 87 98 99 104 110 122 129 134 123 117 116 136 132 138 136 121
16 16 22 24 30 36 54 72 94 61 34 47 72 68 80 102 112 102 86 149 104 104 108 94 96 51 62 64 75 113 126 118 102 79 76 62 61 80 91 105 118 125 124 117 102 112 108 100 128 135 134 124 122 116
21 26 29 38 38 30 35 41 39 70 84 89 83 87 96 87 103 126 171 190 166 148 123 102 57 75 104 114 116 93 83 75 77 63 67 71 75 91 104 101 98 93 104 104 110 71 103 105 112 115 120 112 115 120
74 42 71 39 38 41 19 14 22 28 40 59 65 83 118 122 120 117 165 266 256 132 90 82 65 103 104 103 90 98 84 94 97 108 102 95 96 87 84 92 107 115 117 114 108 103 91 108 105 107 108 113 118 116
83 66 52 60 47 53 35 35 20 16 25 25 26 46 70 93 102 103 82 117 95 30 86 61 114 117 90 71 64 70 71 79 76 94 83 83 89 74 78 91 92 90 105 115 114 115 114 117 106 102 111 101 98 103
119 81 66 60 61 55 13 18 30 26 31 19 25 17 27 40 65 95 65 72 54 36 62 96 89 94 91 78 72 71 77 82 89 82 63 55 54 69 86 87 96 97 95 102 119 129 119 82 93 91 95 93 94 91
132 98 64 57 59 38 32 10 13 23 24 20 25 36 35 32 41 80 109 41 72 55 52 63 80 89 86 90 83 119 119 96 79 68 45 56 53 67 90 100 100 105 125 128 126 120 110 97 65 94 93 97 99 99
62 46 53 29 30 42 44 54 50 61 25 40 65 45 26 42 36 13 32 80 54 70 62 63 79 81 70 93 125 117 95 58 44 19 17 58 71 73 87 95 93 93 95 111 107 96 88 91 89 90 102 105 107 108
63 32 9 8 24 40 43 74 53 23 69 49 24 52 39 55 16 -2 14 21 25 40 66 83 85 99 122 108 93 85 75 61 53 25 47 94 94 100 98 -8 -44 60 100 104 100 102 95 89 93 99 115 111 78 60
9 1 23 62 72 89 92 76 57 43 38 23 37 29 18 27 1 16 12 16 23 22 40 71 91 92 85 88 82 77 77 64 32 49 75 84 81 88 100 -21 -71 94 69 71 93 91 97 102 115 139 139 128 116 107
10 22 18 57 91 109 77 6 11 26 44 35 18 -11 39 17 19 6 13 19 29 34 54 80 102 92 79 77 59 53 54 81 73 60 71 73 59 43 28 49 -108 -33 19 44 58 67 101 111 131 89 79 87 93 84
4 24 64 73 62 -9 -11 12 22 17 27 42 5 3 6 14 12 30 30 40 49 86 107 118 103 102 85 77 66 65 52 40 46 47 7 -54 -73 -79 -86 -64 -33 14 48 71 63 62 56 48 22 28 54 65 61 57
10 -35 -48 -34 -16 -4 18 20 6 24 39 27 5 30 53 57 49 53 58 82 102 87 64 71 72 71 66 48 42 46 39 7 -2 -22 -116 -78 -65 -27 -8 9 25 49 69 89 89 89 45 34 44 23 23 24 27 33
13 1 21 23 1 -6 -4 3 20 17 22 31 39 62 67 67 84 104 119 88 75 87 79 68 50 41 24 7 -30 -78 -80 -96 -78 -77 -77 -51 -19 22 50 72 89 99 99 86 69 49 45 37 34 30 25 22 23 19
-8 -9 -12 -4 -13 5 14 17 25 40 44 55 48 62 87 107 102 85 81 98 72 67 52 53 37 12 -52 -80 -53 -46 -39 -40 -28 -21 1 24 44 50 82 67 69 59 44 34 46 51 42 28 29 34 38 39 43 48
15 16 15 13 20 24 25 41 49 41 41 44 48 62 74 93 97 84 71 58 19 8 30 12 -61 -43 -49 -31 2 -0 -7 6 34 38 44 46 54 41 35 33 8 18 26 35 45 40 38 40 44 42 46 51 53 53

GFSWCAN_con_3kmhel_183.txt.gz
Helicity
46 46 69 71 40 18 22 47 44 44 95 86 113 120 159 135 148 271 251 242 296 249 211 163 216 269 288 270 289 219 258 235 247 193 180 147 142 131 159 169 122 105 103 95 148 143 113 125 130 133 120 134 61 43
42 38 54 60 29 9 14 11 28 43 43 97 51 190 157 161 148 242 306 273 298 303 238 230 261 236 243 193 278 253 286 218 193 243 198 202 197 213 185 166 189 159 143 152 124 138 145 97 128 143 124 105 96 124
36 33 43 30 10 1 -6 -12 6 28 36 69 68 99 97 182 167 252 411 372 404 317 257 243 237 235 277 272 242 299 292 254 262 248 226 246 234 255 207 172 196 182 181 198 182 180 140 129 155 146 129 131 148 144
39 40 37 16 18 9 -5 -13 -21 20 67 70 80 41 90 203 179 250 427 406 403 328 295 248 264 327 304 268 246 253 225 288 293 305 285 276 270 221 226 245 230 198 182 208 214 135 154 162 143 141 119 121 155 163
42 55 12 -1 -9 14 -52 100 42 61 94 67 76 50 95 247 212 286 399 367 320 390 243 325 327 339 296 289 266 254 257 332 349 360 392 327 378 345 301 273 244 198 185 195 142 124 145 114 101 97 107 89 84 148
52 47 -7 -30 -49 -92 272 11 61 142 173 81 100 88 139 299 252 313 429 334 312 370 379 312 263 283 354 331 330 335 290 301 381 360 346 310 341 303 221 249 140 151 152 118 129 139 108 93 73 74 73 95 131 128
45 32 -14 -13 -37 93 183 47 47 138 181 187 131 109 298 322 338 329 475 467 373 390 448 414 324 342 336 380 374 361 370 347 402 426 321 284 263 230 233 238 131 115 146 150 133 110 97 74 106 105 134 143 130 140
62 17 -5 -24 -43 196 575 3 54 145 150 185 144 220 396 271 302 363 415 151 444 551 419 461 477 376 361 438 451 412 392 376 357 285 264 282 255 219 197 128 176 166 157 148 145 114 127 118 134 158 147 160 154 144
52 30 21 -17 -41 15 470 244 -11 -4 56 174 259 452 374 404 448 478 356 624 640 513 482 488 509 447 377 501 412 381 359 345 299 324 301 219 273 212 173 170 158 150 136 123 118 118 130 142 147 136 122 117 126 134
33 42 44 -1 -34 -12 164 809 489 268 363 646 841 542 452 528 279 531 469 490 568 610 479 339 391 523 493 505 475 444 415 400 329 330 299 257 246 201 185 152 138 140 135 106 115 151 139 125 122 114 106 119 121 132
17 53 49 4 -15 -72 -16 260 846 858 805 561 394 505 524 497 523 496 491 434 397 533 461 516 578 537 543 540 502 457 367 293 300 271 246 232 225 207 206 204 184 141 123 136 98 118 133 133 134 132 132 124 119 100
11 60 57 38 -1 -59 -31 97 256 527 413 492 418 463 552 433 345 335 466 557 426 512 509 510 527 643 519 501 391 374 361 320 295 233 274 227 215 190 186 160 136 132 128 127 112 120 123 123 109 99 88 80 75 77
24 41 90 69 34 -12 -26 54 95 207 313 521 568 521 426 317 295 314 438 531 498 311 454 522 576 479 447 410 361 292 312 321 192 256 248 214 159 143 125 101 108 86 84 89 92 85 87 80 86 88 87 89 84 88
29 47 74 69 57 46 6 -4 80 59 203 406 463 462 335 320 237 257 367 316 374 339 392 628 744 606 478 433 284 347 304 284 315 257 226 130 112 110 103 86 77 68 70 75 63 49 51 63 74 78 77 86 84 88
27 38 45 68 94 75 75 37 -2 11 62 154 229 351 280 217 231 248 282 361 396 361 413 501 579 419 555 437 392 317 308 308 231 192 136 94 66 70 76 65 47 47 59 60 51 55 62 72 84 92 95 97 105 98
40 16 5 34 91 136 132 116 20 -9 70 145 152 167 188 171 239 260 246 310 315 343 277 287 309 341 361 271 289 312 270 206 126 84 68 67 56 49 47 44 45 46 52 57 59 67 79 96 113 116 109 90 70 76
52 2 15 21 33 85 136 91 92 48 9 64 137 155 174 198 190 190 196 217 177 271 366 318 337 320 199 240 218 141 146 77 46 60 42 32 38 45 46 40 38 38 41 63 86 95 105 106 98 105 89 67 75 84
16 7 20 28 14 3 55 119 91 101 108 80 79 124 137 140 159 182 126 99 101 154 156 167 94 164 171 161 131 65 66 76 61 45 32 40 48 42 33 21 33 55 66 77 84 92 93 86 81 75 83 80 84 76
8 18 43 40 12 -5 20 121 130 185 151 117 103 100 91 74 77 56 51 53 46 55 54 93 126 166 116 90 94 62 50 40 44 27 38 40 33 28 34 46 55 64 79 94 85 69 69 75 88 92 95 110 115 110
34 38 46 43 7 2 39 59 50 111 121 138 116 145 106 89 88 83 86 76 66 72 89 120 140 122 100 54 38 43 32 21 40 51 52 46 43 45 47 60 65 81 88 81 73 80 79 88 94 103 113 115 119 114
8 19 22 -3 0 1 8 22 48 57 83 90 88 80 80 86 107 109 87 86 56 33 74 120 142 108 99 77 57 39 32 30 33 44 55 61 76 76 75 74 82 79 80 76 73 78 92 87 101 105 116 108 109 104
-11 22 -7 -5 -9 -7 -15 -6 -5 2 30 53 77 95 113 112 107 105 100 91 66 77 94 114 104 105 100 72 48 35 39 54 67 77 88 89 98 92 81 72 63 59 73 77 81 78 72 89 96 107 113 107 98 114
17 17 -4 -8 -3 0 -13 -6 16 25 27 18 20 50 71 85 98 92 107 89 90 78 69 73 117 100 40 51 70 77 80 76 88 103 110 104 92 82 80 69 47 52 70 83 81 76 82 62 87 96 102 98 108 108
42 17 7 -7 1 -8 -12 -22 -30 -18 -5 3 9 30 35 45 52 76 108 104 101 89 92 85 51 58 83 95 80 92 115 113 113 106 104 106 105 102 82 60 58 73 83 80 74 69 73 84 65 95 85 85 84 98
48 21 -5 4 -8 -7 7 0 -2 15 10 19 19 22 28 39 39 62 71 86 96 94 100 95 94 100 89 82 79 94 104 93 95 102 85 85 99 79 76 77 78 85 92 88 45 27 44 76 86 85 77 77 75 77
16 -1 -5 -6 -4 -7 -13 -7 -28 -25 3 10 9 25 28 35 45 21 19 61 68 96 110 117 93 70 92 83 68 72 76 70 68 75 74 94 83 80 83 101 97 85 76 45 5 7 39 59 67 70 67 56 30 32
19 -4 -9 -10 12 25 12 16 8 -5 -12 -15 -3 14 17 16 8 -1 21 40 44 42 37 45 49 43 37 33 27 38 50 62 68 74 81 87 91 83 89 82 65 42 34 6 -38 -3 -6 26 34 35 41 56 71 77
5 9 13 23 30 3 -26 -5 -10 -29 -26 33 -7 -61 -42 -14 -4 14 31 32 29 14 14 17 13 17 32 39 48 59 58 60 54 51 58 70 74 62 63 35 9 21 -13 -46 -45 -37 9 42 34 41 61 49 35 52
17 22 23 28 21 -8 -3 -2 17 15 17 29 39 41 46 32 29 18 19 18 21 32 44 49 63 60 42 46 36 43 33 37 49 74 76 64 67 61 19 -10 -5 -12 -20 -18 4 -3 -6 9 16 15 35 28 50 62
-6 7 -8 -8 -21 9 11 11 12 21 21 18 11 -3 -2 -6 17 27 25 40 48 49 30 20 16 18 13 12 3 21 20 35 42 29 -71 -44 -36 2 11 16 14 18 13 4 8 19 21 -4 -15 37 54 59 63 64
16 29 18 13 16 20 18 24 20 12 15 19 45 21 26 11 21 64 80 69 57 50 51 52 45 10 1 -2 -6 -29 -33 -40 -52 -13 1 22 41 53 67 71 69 58 49 41 43 40 29 -4 -5 53 46 47 51 61
14 6 -3 12 12 21 27 20 21 30 50 41 46 54 55 53 52 61 78 72 57 47 42 24 16 20 -16 -63 -60 -56 -30 -14 -4 3 26 42 64 89 125 104 94 77 51 35 15 9 10 15 47 49 51 54 54 57
-2 0 3 6 22 26 31 34 46 41 55 56 55 50 58 75 71 61 65 39 15 10 11 -5 0 -19 -53 -76 -52 -48 -44 -32 3 30 44 47 51 45 29 34 13 18 20 11 6 20 47 57 58 58 55 49 51 49

GFSWCAN_con_3kmhel_186.txt.gz
Helicity
31 20 15 14 19 33 58 68 49 65 76 73 68 104 119 135 122 117 292 283 265 351 226 145 190 226 240 219 222 186 258 248 298 277 264 224 181 138 169 186 138 136 146 135 176 172 122 150 205 167 126 130 103 101
31 24 19 19 21 37 52 49 43 34 26 38 51 54 86 113 90 116 236 335 291 332 301 163 187 214 176 162 242 216 227 181 192 277 293 290 278 233 182 151 206 179 161 146 137 158 189 92 186 170 153 159 140 124
20 21 18 15 28 47 53 47 29 25 21 24 26 40 43 70 93 37 142 406 407 287 298 235 190 168 269 236 239 268 267 233 259 264 262 281 306 280 244 139 157 181 240 226 210 217 208 175 217 202 152 163 138 119
14 15 10 25 25 29 44 36 26 17 8 22 8 33 44 44 70 35 105 372 403 440 421 331 265 261 262 234 249 276 252 303 280 295 306 317 348 238 260 218 211 175 246 275 264 238 249 230 192 180 173 151 126 141
12 16 16 24 16 38 25 13 13 12 5 9 -20 -22 48 69 73 115 41 184 477 411 461 460 361 237 273 303 264 272 294 336 348 350 348 323 323 294 319 303 280 337 317 329 268 198 205 201 186 144 122 97 85 124
12 7 14 13 16 22 2 -17 -40 -50 -50 -61 7 59 139 126 90 199 73 97 529 336 404 476 372 346 389 325 339 326 360 390 390 376 338 289 292 260 206 234 290 297 342 317 220 173 164 118 118 110 74 98 126 119
7 3 -1 -1 18 8 -9 -49 -49 -91 27 70 18 17 140 258 341 428 396 263 589 486 439 494 461 361 318 387 432 448 470 441 386 376 315 310 275 215 263 342 335 287 276 213 173 152 154 120 111 110 110 136 135 149
3 -5 -7 10 12 10 -46 -58 -65 77 27 34 -6 64 248 270 271 262 164 109 450 455 379 535 650 504 423 489 518 476 466 412 336 368 347 308 257 287 327 342 370 318 256 234 201 151 116 101 129 146 126 116 137 154
0 -4 8 10 17 7 -59 -64 -4 171 44 58 148 235 270 281 475 228 123 103 427 466 458 588 620 724 524 661 525 489 403 419 365 418 370 291 401 356 384 327 332 319 200 164 129 106 106 129 139 141 136 145 151 160
-3 -2 18 12 18 5 -62 -35 120 4 35 75 144 314 475 405 179 243 615 690 585 595 561 635 690 646 507 601 585 501 441 424 394 407 396 465 503 519 472 389 290 201 136 113 127 147 159 181 169 149 155 152 162 164
-5 1 15 12 22 2 -45 -15 130 150 60 140 203 244 380 345 245 538 405 429 477 468 616 600 574 641 616 527 521 437 401 366 363 348 395 411 499 479 336 296 209 148 126 140 137 134 134 106 112 131 139 147 141 130
-5 -1 9 18 13 11 -10 14 31 382 202 235 239 392 311 243 325 280 515 680 406 336 647 747 673 595 501 507 397 406 421 387 292 355 472 419 409 309 292 200 127 106 129 133 102 88 99 118 118 118 111 107 101 89
-7 4 10 33 29 32 27 3 40 150 252 474 405 193 175 281 222 351 691 695 454 307 508 678 802 589 504 411 381 333 335 379 324 360 356 363 323 254 149 109 127 126 113 89 94 106 104 91 81 77 80 77 73 73
-4 11 11 24 39 62 79 39 92 -1 137 174 194 233 216 325 260 345 361 411 355 322 472 724 702 548 509 531 338 320 350 388 433 372 343 227 190 112 92 99 101 82 90 96 85 64 50 43 46 55 61 72 85 96
9 22 2 5 66 101 98 56 -26 -21 -17 49 149 333 271 235 230 292 309 364 409 401 443 513 620 531 578 442 384 390 412 404 353 400 292 161 84 80 78 76 76 75 70 63 56 42 31 44 60 71 86 90 85 75
20 12 -36 50 86 131 110 38 -52 -83 88 49 85 75 198 286 323 296 274 395 464 555 515 445 446 425 474 391 424 488 463 416 332 206 144 91 89 85 81 80 75 70 58 37 27 37 52 72 81 73 68 71 76 88
7 -20 23 48 72 74 97 -9 -26 -57 38 93 132 145 128 152 222 267 320 365 351 345 439 419 437 450 317 458 462 376 382 236 99 96 69 69 71 74 76 79 70 51 34 38 49 67 77 79 76 78 66 78 91 89
-15 -7 28 47 28 -24 67 58 9 -20 21 83 130 220 203 211 194 217 247 259 235 299 284 329 216 326 320 287 290 197 134 115 77 56 59 61 65 67 63 61 46 40 44 55 68 78 84 81 71 64 61 70 78 69
-18 -5 32 37 -7 -21 22 144 112 71 62 60 90 135 143 195 199 172 222 233 179 154 214 242 220 230 206 132 72 58 56 68 71 57 50 51 50 48 47 45 46 54 62 66 77 73 70 58 51 63 62 74 74 82
18 14 30 10 -5 -5 48 112 139 121 134 132 113 133 92 129 159 152 165 172 164 194 244 245 223 196 129 91 53 48 58 46 56 69 52 37 42 57 61 61 63 60 61 66 65 70 63 62 65 67 67 77 91 95
24 19 17 -16 -5 9 26 60 106 125 136 124 154 138 118 109 108 125 127 146 130 207 211 172 174 152 118 102 90 63 56 43 39 34 35 52 62 84 91 82 67 53 43 44 63 72 77 62 64 64 77 85 90 89
40 34 2 3 -6 -3 -12 15 27 35 76 96 111 113 126 137 147 134 127 87 103 143 157 170 166 140 113 95 74 69 54 59 59 60 79 82 85 94 87 77 77 62 55 52 45 44 58 68 68 79 83 77 71 85
30 20 -3 7 -10 -22 -22 2 6 22 39 55 60 102 114 114 112 116 98 95 93 106 112 107 134 119 88 89 100 127 108 79 81 77 83 90 96 103 101 84 70 66 74 55 43 66 73 67 65 70 74 71 77 77
5 -9 -4 -15 -6 -21 -22 -20 -22 -13 -6 15 40 76 73 83 106 115 139 128 133 137 124 98 49 67 111 133 129 127 144 101 83 82 87 87 91 91 89 78 73 68 62 61 87 77 74 68 53 62 72 73 71 73
22 0 -6 -1 -9 4 0 -20 -20 -9 -5 17 19 30 31 37 83 111 124 116 131 143 172 139 125 112 86 97 113 138 128 104 97 83 74 73 84 86 90 84 93 101 105 133 89 71 63 63 57 62 64 61 55 31
12 -16 4 5 -9 -11 -22 -25 -36 -22 -10 19 18 16 29 30 62 67 50 70 97 115 132 131 112 88 99 81 67 80 89 71 52 51 56 73 77 87 105 139 147 143 123 85 62 53 39 28 30 33 34 -10 -17 6
13 0 -9 -2 -3 -19 -11 -13 -19 -28 -14 5 14 36 41 37 35 22 25 43 41 65 76 62 58 56 48 41 33 41 53 55 66 70 72 78 85 86 105 110 90 64 55 38 34 25 -2 -9 0 1 -15 -14 -1 77
-7 -3 9 -11 -20 -2 -25 -16 -40 -42 -39 -22 -28 -59 -35 -20 -27 -2 23 40 36 17 10 27 39 47 49 44 41 42 31 34 40 52 70 96 116 109 110 81 37 16 17 16 -12 -39 -29 -15 -5 5 14 19 38 69
6 -8 -31 2 2 -12 -10 0 13 23 27 45 12 14 8 28 37 30 23 23 18 23 34 42 56 53 30 24 23 17 4 21 40 64 66 57 77 77 51 11 7 -2 -13 -11 15 5 -1 3 7 26 31 40 44 54
-2 21 4 -6 -20 -5 2 11 13 24 19 17 15 12 13 10 23 28 15 18 30 27 25 22 23 20 11 7 -2 3 6 18 15 -1 -62 -53 -26 16 31 41 41 39 20 8 11 11 15 2 -1 20 31 40 54 59
5 9 6 2 2 9 8 17 23 16 10 14 42 6 3 19 28 51 51 43 41 35 34 54 46 4 -3 -3 -12 -18 -18 -7 -23 -38 -21 12 37 51 63 71 77 66 50 37 34 28 13 -6 -17 12 42 49 53 63
5 -4 -2 6 5 12 12 14 21 18 39 36 40 41 45 45 44 41 62 57 44 39 39 25 29 32 -1 2 -9 25 -31 -39 -25 -14 7 24 50 75 105 94 96 80 58 51 28 4 -23 -10 38 53 55 59 60 57
-11 -11 -8 -7 10 15 20 24 39 33 47 54 59 58 50 50 50 54 58 37 9 16 13 15 31 16 -20 -33 -60 -49 -46 -38 1 22 30 33 33 25 13 23 1 4 10 -1 -15 13 37 52 58 60 60 57 53 41

GFSWCAN_con_3kmhel_192.txt.gz
Helicity
34 43 51 49 46 38 30 23 22 31 46 58 52 38 55 74 84 105 129 92 183 187 74 138 330 272 282 173 159 197 226 281 337 283 255 266 243 209 238 240 175 176 191 162 179 128 67 90 55 35 62 70 67 80
30 41 44 45 39 29 24 24 23 27 24 30 27 20 28 41 42 51 119 86 92 171 143 276 225 178 173 195 151 190 259 177 217 271 311 301 301 283 248 221 252 229 214 214 222 184 230 123 154 153 121 140 148 141
43 46 49 42 38 35 29 24 19 22 25 24 21 25 15 27 24 42 92 93 134 145 89 58 51 15 98 84 33 185 255 261 315 259 245 276 276 266 286 264 213 185 210 256 266 245 194 154 217 219 273 292 270 258
49 53 49 41 43 44 39 29 23 23 22 23 24 27 25 21 26 39 82 100 146 149 156 56 -19 77 75 53 56 97 156 195 164 155 234 270 262 238 266 278 272 270 256 248 275 268 232 209 231 263 441 485 456 366
41 45 41 41 37 35 33 27 25 26 25 24 22 25 36 37 32 68 102 156 172 220 184 130 59 38 124 136 92 143 128 167 279 282 286 326 313 310 361 341 328 350 350 370 297 194 226 163 261 405 531 537 373 323
37 36 32 31 28 28 31 25 26 30 33 25 27 29 35 46 42 71 132 272 317 310 307 152 99 -4 40 115 -9 43 109 190 258 329 295 265 274 285 288 328 313 300 341 337 288 254 268 333 456 552 533 422 289 239
36 36 34 35 32 34 32 23 26 20 12 8 11 -1 -12 -20 94 216 299 291 194 269 382 327 260 210 137 71 95 88 47 243 318 337 316 273 257 293 313 298 258 288 385 365 334 429 445 403 395 349 307 260 266 256
36 37 37 43 38 37 35 15 16 1 -10 -5 -21 -34 -22 -42 -57 71 166 169 309 362 483 473 359 269 161 110 99 167 253 272 347 399 432 380 352 374 322 302 284 342 398 420 353 330 280 391 388 374 300 258 267 258
35 36 39 39 39 35 8 2 -8 -16 -22 -24 -36 -4 -45 121 233 182 168 326 425 452 651 500 504 405 319 169 85 183 265 299 322 470 481 445 500 436 338 257 279 402 464 412 430 363 350 333 327 289 256 247 237 207
40 39 40 37 39 17 -6 -16 -14 -18 -25 -36 -61 -9 76 106 78 150 133 135 370 472 575 574 379 460 476 383 205 160 286 378 350 409 477 471 391 366 357 229 300 343 357 416 427 387 383 353 296 250 215 200 182 170
34 33 29 35 26 3 -9 -4 -10 -19 -33 -2 99 103 88 -49 22 19 139 238 226 403 422 362 363 442 474 347 213 208 370 441 491 473 477 390 363 392 342 337 372 370 300 259 242 242 257 272 249 226 209 185 163 144
27 21 33 18 20 -2 13 -3 -12 -50 19 125 217 138 78 10 8 34 147 174 137 285 150 246 338 284 537 515 280 123 171 256 326 379 421 353 343 422 519 519 477 390 401 426 359 364 321 251 194 179 147 131 122 122
23 23 17 12 5 17 2 -13 6 -10 -42 149 55 39 74 56 54 49 153 217 174 115 219 146 238 408 464 246 96 393 429 524 322 400 383 306 359 431 505 563 601 525 466 462 471 416 303 229 167 125 106 104 108 99
16 17 16 -4 12 -9 -5 1 2 -36 29 34 47 -42 -62 26 63 88 48 159 253 234 201 -53 307 354 250 202 -32 219 296 251 425 298 323 276 380 430 493 506 507 449 416 410 364 254 192 132 110 100 97 89 83 82
6 10 2 -8 -12 9 4 6 -35 -19 3 21 43 -5 -28 -68 -57 -70 -9 -6 109 172 255 252 306 206 157 238 117 133 318 394 302 269 257 344 347 450 442 390 411 432 399 326 214 160 117 99 97 97 81 76 72 71
5 15 68 -15 32 24 14 -57 -66 -35 12 24 67 -7 18 2 46 86 42 58 144 237 250 438 262 127 61 -19 160 166 99 175 219 324 326 342 353 407 374 366 325 273 239 191 123 91 88 87 80 76 72 73 72 69
12 87 -8 6 29 33 -43 -98 -20 -41 33 61 57 68 73 48 94 99 130 157 217 355 281 115 198 321 291 288 376 387 291 254 266 294 284 360 387 335 317 292 234 179 127 83 80 86 90 76 69 65 72 67 67 61
98 74 -6 21 -2 -52 -54 -60 1 20 49 45 40 75 58 58 96 137 203 224 216 214 209 163 168 203 389 449 454 414 382 322 344 304 277 275 262 186 125 124 96 76 72 82 84 73 62 58 68 72 67 65 63 66
75 13 16 11 -32 -43 -19 -0 79 59 52 56 113 146 37 25 109 163 189 124 92 126 227 238 265 368 385 381 281 332 346 365 449 374 262 141 101 91 86 84 89 98 96 71 55 58 64 76 79 77 73 70 73 68
35 -6 22 -17 -45 -19 6 50 69 60 76 99 105 127 46 101 187 222 250 293 190 139 227 297 264 251 227 154 157 225 169 151 253 413 340 149 78 84 83 82 81 76 82 78 76 72 70 76 77 77 77 69 63 63
10 26 1 -15 -27 -14 21 70 76 96 116 97 147 145 97 146 309 335 400 426 537 680 515 469 380 284 171 187 162 111 116 74 75 64 57 73 73 87 94 85 70 66 75 70 74 79 81 76 73 73 71 67 69 68
42 10 12 12 3 -4 -9 -11 38 91 105 93 142 151 145 222 314 404 522 683 617 577 520 343 235 170 208 219 181 180 107 121 130 100 98 80 71 77 76 74 77 81 77 70 68 71 73 70 63 66 73 79 82 76
4 10 11 4 -7 -18 -6 23 13 44 67 113 90 124 122 144 164 140 162 296 266 267 244 176 133 118 137 143 153 199 186 123 130 109 98 106 108 100 94 93 74 69 73 78 82 88 88 88 89 93 97 97 88 71
2 12 15 -15 -24 -29 -28 -3 16 29 34 78 116 136 147 139 190 155 181 183 179 161 151 124 100 93 137 200 198 183 167 103 99 122 99 78 89 93 81 80 84 93 93 93 103 106 100 98 108 109 104 90 69 53
10 34 -0 -3 -37 -37 -33 -1 22 29 54 81 98 101 114 102 149 172 174 165 195 211 194 152 118 112 99 98 112 122 133 111 79 81 106 91 61 63 83 98 111 128 131 125 117 113 116 113 106 93 76 59 43 39
12 -1 -2 -21 -33 -44 -56 -19 11 25 35 69 72 60 67 89 138 154 144 130 127 146 180 188 159 120 143 138 105 113 121 126 79 75 69 77 68 65 73 83 90 102 118 117 108 104 98 82 68 61 53 38 30 34
10 -8 -16 -19 -34 -38 -35 -48 -22 39 68 78 78 71 71 93 100 79 52 62 65 84 91 96 98 98 89 89 46 35 23 29 17 20 29 48 64 82 97 107 104 85 80 76 76 63 52 47 42 35 32 36 20 12
11 11 1 -16 -9 -18 -14 -38 -40 -9 30 21 30 57 41 44 32 6 8 15 22 29 27 30 36 29 34 47 41 38 28 17 17 28 40 65 66 48 70 64 49 38 47 48 42 33 25 32 32 2 4 1 8 33
9 -3 -18 -0 -6 -0 -1 -14 -24 2 22 -10 -33 -31 -20 -13 -0 -0 5 13 17 24 43 64 84 61 31 18 14 6 24 33 23 46 52 46 41 34 39 37 30 13 10 -6 6 1 5 18 18 -1 6 38 38 38
7 11 -6 -9 3 20 22 30 36 58 62 58 44 42 59 50 57 56 31 21 23 26 31 28 33 32 27 24 25 7 -8 -4 10 24 24 21 21 22 26 29 27 25 8 -2 -0 10 20 7 7 10 25 35 41 46
15 1 -4 -3 8 12 22 33 33 22 24 35 43 24 19 20 22 22 15 -1 -5 -0 3 32 36 20 21 17 7 -3 -12 -14 -2 3 -4 -11 12 29 44 48 52 40 25 19 18 14 5 -5 12 32 44 49 45 42
9 4 -2 11 9 19 13 2 4 -3 8 8 20 20 25 32 38 22 61 44 30 22 26 19 23 36 13 -13 -22 -37 -12 -36 -16 -7 7 9 29 63 74 63 63 36 30 29 14 5 15 28 38 43 44 40 35 22
20 16 10 5 9 10 18 5 21 25 37 37 43 48 51 47 41 22 32 46 40 24 15 30 52 33 -5 -9 -21 2 -42 -48 -5 13 23 26 34 26 20 30 7 5 3 -1 15 28 35 44 46 42 37 26 14 10

GFSWCAN_con_3kmhel_195.txt.gz
Helicity
-13 -5 3 10 22 31 35 36 35 35 32 25 40 37 32 43 36 49 97 64 125 175 109 101 106 125 142 182 195 224 175 136 167 255 251 237 264 248 232 217 243 266 244 259 231 271 168 207 224 88 101 97 79 83
-6 8 22 37 30 28 26 30 43 43 39 33 35 32 26 23 20 41 90 53 74 115 190 188 108 83 122 25 47 196 306 352 157 159 201 198 263 270 231 257 280 292 311 267 218 239 233 155 212 121 101 106 69 128
10 11 17 26 29 35 32 38 40 39 35 31 31 33 23 24 25 40 57 54 68 134 108 134 154 115 134 128 114 101 67 227 224 229 235 237 252 204 232 215 202 274 315 301 294 240 227 213 264 176 147 138 145 162
16 19 26 32 38 41 39 38 35 29 29 28 28 25 27 26 32 39 72 59 94 95 92 133 76 46 34 40 56 138 8 7 37 173 265 282 315 205 251 257 207 254 263 275 288 286 344 291 218 182 222 204 220 300
35 34 38 44 44 45 44 39 35 31 31 29 28 25 28 28 27 51 86 114 128 164 247 153 117 113 105 63 32 77 63 -141 58 86 165 184 241 297 287 301 309 292 275 315 269 263 303 204 200 205 252 281 328 386
37 44 49 48 49 50 53 48 42 38 41 43 36 31 38 26 19 68 84 142 203 247 289 230 182 55 97 171 174 69 105 107 60 79 219 123 166 256 238 216 208 162 214 256 213 191 287 254 224 227 300 342 382 412
36 42 47 48 53 54 44 48 48 38 43 41 36 41 29 23 61 110 129 157 126 87 256 360 338 304 273 298 218 154 133 104 78 66 41 123 107 235 288 226 168 180 208 263 272 431 433 300 255 278 339 427 436 418
34 41 41 45 45 44 44 42 39 38 37 32 31 19 -5 -12 15 54 123 156 141 302 356 417 442 352 295 340 300 313 217 184 152 2 -116 113 129 302 248 201 273 267 281 264 203 317 201 249 271 301 380 368 409 407
41 38 35 35 32 33 34 31 36 38 32 24 9 -30 -60 52 142 187 149 109 127 239 513 394 266 323 260 235 307 300 278 156 147 54 21 91 176 320 276 287 329 432 358 299 325 320 293 297 333 333 324 347 411 368
39 32 34 34 34 32 24 26 25 27 23 3 -35 -19 -16 82 120 -4 -115 67 176 411 636 297 369 202 365 348 326 318 238 133 106 41 135 175 99 137 179 244 284 306 364 398 446 372 348 390 348 316 313 321 336 313
36 38 35 30 33 33 25 21 21 24 7 -3 31 119 171 64 104 62 120 218 170 237 251 269 191 317 281 322 277 306 263 171 97 61 173 288 337 200 329 369 355 375 346 297 281 353 370 358 375 396 392 360 316 270
29 34 39 32 22 20 22 23 29 33 12 39 -6 -5 94 80 40 69 122 117 121 147 138 114 246 298 383 342 292 269 304 207 63 84 140 203 111 281 387 410 443 420 403 412 363 397 378 405 369 379 366 325 280 227
30 33 28 17 12 15 19 33 0 -26 -57 -10 39 35 68 60 79 99 93 100 91 137 206 92 207 257 354 335 306 234 201 123 1 94 176 286 195 259 420 536 533 587 588 532 501 470 499 466 408 366 327 252 195 166
29 28 20 12 20 23 33 0 -9 -42 -33 -21 -5 -56 86 30 52 98 -13 -39 -8 73 100 130 275 231 335 291 263 158 211 141 -69 -93 33 135 273 425 485 557 598 593 610 603 562 594 526 473 411 291 217 151 127 114
27 19 9 17 29 19 8 0 -13 -32 12 18 -7 -84 21 38 -97 -104 -103 -46 -25 57 58 110 228 234 367 280 323 193 37 50 54 -45 102 179 281 405 518 638 736 788 717 678 590 519 419 327 258 185 133 114 106 94
11 5 46 36 23 10 11 -32 -31 -5 30 32 21 -28 -53 -58 -36 -53 -49 -26 14 55 60 85 225 199 175 201 107 38 -13 14 18 84 241 362 422 528 597 670 649 594 562 485 395 321 238 173 128 108 101 96 86 74
10 98 39 17 8 11 -41 -48 -45 -5 13 -5 21 30 12 -16 -27 -43 -39 -9 -35 28 63 35 108 107 85 76 18 78 87 28 -24 104 274 381 500 621 580 508 420 424 423 343 263 202 149 108 95 90 89 72 64 58
21 48 9 0 15 -49 -41 -1 -13 10 16 18 15 21 9 -16 -26 18 -4 28 -2 59 62 112 113 7 57 16 -32 42 49 171 250 344 453 607 562 515 459 439 365 307 271 202 138 106 101 97 93 82 72 58 52 43
31 21 37 48 -12 -60 -22 -7 10 43 35 23 21 8 -16 -8 60 100 72 68 107 156 143 115 64 20 7 88 59 124 317 408 515 494 507 453 354 317 285 268 230 188 134 95 90 94 88 83 75 66 65 58 56 57
19 45 59 45 -7 -62 -2 0 34 46 42 45 24 -1 11 53 116 222 284 312 245 248 235 177 189 205 332 316 313 466 557 547 594 690 491 335 250 229 179 120 96 86 105 103 93 75 68 73 73 65 58 55 58 63
15 43 43 32 -15 -32 0 41 41 54 65 24 50 31 24 154 358 527 649 687 749 715 532 312 201 75 56 178 291 280 229 207 223 238 255 288 103 91 90 90 94 86 79 69 70 76 81 74 63 56 55 60 61 63
35 23 32 11 -26 -30 -21 0 45 72 67 59 73 60 137 321 525 685 728 800 686 605 517 386 380 270 226 265 192 142 58 98 104 92 77 71 81 86 92 76 72 83 84 77 68 64 67 63 60 65 71 74 77 80
16 9 12 -10 -24 -31 -28 -12 2 57 78 70 63 59 84 174 311 332 448 501 367 314 272 175 141 128 119 116 169 205 182 132 132 119 103 105 111 103 98 99 82 64 62 71 66 69 71 78 79 83 88 92 93 95
-5 6 12 -8 -23 -37 -36 -16 -6 1 35 75 87 78 85 113 182 175 263 240 200 181 199 150 126 110 156 207 227 202 196 109 93 128 118 72 82 90 75 74 76 83 76 66 76 81 87 96 111 113 112 106 101 94
25 37 16 -1 -28 -24 -24 -4 19 32 52 85 95 100 86 89 123 130 141 155 171 207 214 192 137 134 117 110 118 129 143 128 89 77 112 85 49 47 62 68 79 91 92 92 107 112 119 126 123 116 101 84 71 60
32 10 1 -13 -14 -15 -33 -20 27 51 59 75 72 76 97 109 107 110 124 147 150 170 196 192 176 131 138 133 109 124 135 118 63 50 64 64 65 53 56 64 66 77 97 100 106 115 117 110 99 86 66 51 42 35
23 13 3 13 -13 -25 -32 -39 -4 58 74 90 83 79 94 121 131 103 84 97 110 132 126 126 128 125 124 123 77 63 54 37 21 9 17 44 71 100 98 88 89 76 66 69 69 63 58 54 43 27 22 28 24 24
23 22 16 -4 -3 -19 -26 -28 -3 41 53 52 41 55 46 61 85 52 46 39 45 47 53 55 44 40 37 27 30 32 12 6 5 12 19 48 51 60 64 57 46 39 38 35 25 30 22 20 26 34 37 36 16 37
15 10 -1 7 -6 -6 -16 -21 -15 1 25 22 18 22 33 46 53 55 37 29 27 33 48 60 64 34 18 3 2 11 23 27 22 42 56 48 39 42 43 40 31 26 17 3 -1 6 21 48 58 46 31 43 44 44
15 18 2 10 18 14 19 35 38 61 54 34 20 26 55 48 51 40 24 24 31 37 43 41 37 29 25 26 20 12 -1 -5 5 16 23 27 31 37 41 38 29 15 7 4 4 6 13 4 5 18 29 38 40 41
22 17 4 20 14 15 23 37 43 40 40 50 51 46 26 21 27 41 36 22 15 18 21 29 19 8 11 15 16 13 2 -17 -24 -17 -4 8 16 30 35 37 29 19 9 6 6 4 1 1 12 28 43 47 41 40
19 15 13 17 13 24 25 19 15 13 22 26 27 25 20 14 19 17 59 48 33 26 27 20 25 30 17 5 -5 -25 -44 -24 -17 -2 11 16 30 54 66 46 37 9 4 5 -1 -8 3 26 37 41 43 47 30 13
14 18 20 13 12 9 19 16 23 23 39 42 50 55 59 58 46 39 40 52 42 32 29 41 44 32 10 5 -9 -8 -8 -20 -23 0 18 25 31 22 8 27 4 0 -4 -12 3 25 32 42 46 44 37 17 12 8